When you browse on this site, cookies collect data to enhance your experience and personalize the content and advertising you see.
Visit our Privacy Policy to learn more. By continuing to use the site, you agree to this use of cookies and data.
  • în România
  • Lista ţărilor
  • Pe 7 zile
  • Temperatura apei
  • Meteo pe hartă
  • Widget-uri
  • user-avatar
    Intrare

    Meteo pe oră la Świdnik

    Astăzi, 21 August, Miercuri

    Timp Temperatura Precipitaţii Vânt Presiune Umiditate
    00:00 +21°C° 0 mm 3 m/s 749 mmHg 85%
    01:00 +21°C° 0 mm 3 m/s 749 mmHg 88%
    02:00 +20°C° 0 mm 4 m/s 748 mmHg 91%
    03:00 +20°C° 0.2 mm 3 m/s 748 mmHg 92%
    04:00 +20°C° 0.2 mm 3 m/s 747 mmHg 93%
    05:00 +20°C° 0.2 mm 3 m/s 747 mmHg 94%
    06:00 +21°C° 0.1 mm 4 m/s 747 mmHg 88%
    07:00 +22°C° 0.1 mm 4 m/s 747 mmHg 82%
    08:00 +23°C° 0.1 mm 4 m/s 748 mmHg 77%
    09:00 +25°C° 0 mm 5 m/s 748 mmHg 75%
    10:00 +26°C° 0 mm 5 m/s 748 mmHg 73%
    11:00 +27°C° 0 mm 5 m/s 749 mmHg 72%
    12:00 +24°C° 0 mm 6 m/s 749 mmHg 74%
    13:00 +23°C° 0 mm 6 m/s 750 mmHg 76%
    14:00 +21°C° 0 mm 7 m/s 750 mmHg 78%
    15:00 +21°C° 0 mm 7 m/s 751 mmHg 76%
    16:00 +20°C° 0 mm 7 m/s 751 mmHg 74%
    17:00 +20°C° 0 mm 7 m/s 751 mmHg 72%
    18:00 +19°C° 0 mm 6 m/s 752 mmHg 72%
    19:00 +17°C° 0 mm 5 m/s 752 mmHg 73%
    20:00 +16°C° 0 mm 5 m/s 753 mmHg 74%
    21:00 +15°C° 0 mm 4 m/s 753 mmHg 77%
    22:00 +14°C° 0 mm 4 m/s 753 mmHg 81%
    23:00 +13°C° 0 mm 3 m/s 754 mmHg 84%

    Mâine, 22 August, Joi

    Timp Temperatura Precipitaţii Vânt Presiune Umiditate
    00:00 +13°C° 0 mm 3 m/s 754 mmHg 87%
    01:00 +12°C° 0 mm 3 m/s 754 mmHg 89%
    02:00 +13°C° 0 mm 2 m/s 754 mmHg 92%
    03:00 +12°C° 0 mm 2 m/s 754 mmHg 93%
    04:00 +12°C° 0 mm 2 m/s 754 mmHg 94%
    05:00 +10°C° 0 mm 2 m/s 754 mmHg 96%
    06:00 +12°C° 0 mm 3 m/s 754 mmHg 90%
    07:00 +13°C° 0 mm 3 m/s 755 mmHg 85%
    08:00 +14°C° 0 mm 4 m/s 755 mmHg 80%
    09:00 +15°C° 0 mm 4 m/s 755 mmHg 73%
    10:00 +18°C° 0 mm 4 m/s 755 mmHg 67%
    11:00 +20°C° 0 mm 4 m/s 755 mmHg 61%
    12:00 +21°C° 0 mm 4 m/s 755 mmHg 58%
    13:00 +22°C° 0 mm 4 m/s 755 mmHg 55%
    14:00 +23°C° 0 mm 4 m/s 755 mmHg 52%
    15:00 +22°C° 0 mm 3 m/s 754 mmHg 53%
    16:00 +22°C° 0 mm 3 m/s 754 mmHg 54%
    17:00 +22°C° 0 mm 3 m/s 754 mmHg 56%
    18:00 +21°C° 0 mm 3 m/s 754 mmHg 61%
    19:00 +19°C° 0 mm 3 m/s 754 mmHg 66%
    20:00 +18°C° 0 mm 2 m/s 754 mmHg 71%
    21:00 +17°C° 0 mm 2 m/s 754 mmHg 74%
    22:00 +17°C° 0 mm 2 m/s 754 mmHg 76%
    23:00 +16°C° 0 mm 2 m/s 754 mmHg 79%

    Poimâine, 23 August, Vineri

    Timp Temperatura Precipitaţii Vânt Presiune Umiditate
    00:00 +16°C° 0 mm 2 m/s 754 mmHg 81%
    01:00 +15°C° 0 mm 2 m/s 754 mmHg 83%
    02:00 +14°C° 0 mm 2 m/s 754 mmHg 85%
    03:00 +14°C° 0 mm 2 m/s 754 mmHg 88%
    04:00 +14°C° 0 mm 2 m/s 754 mmHg 90%
    05:00 +12°C° 0 mm 3 m/s 754 mmHg 92%
    06:00 +14°C° 0 mm 3 m/s 754 mmHg 88%
    07:00 +16°C° 0 mm 3 m/s 754 mmHg 83%
    08:00 +17°C° 0 mm 3 m/s 754 mmHg 79%
    09:00 +19°C° 0 mm 3 m/s 755 mmHg 72%
    10:00 +21°C° 0 mm 4 m/s 755 mmHg 66%
    11:00 +22°C° 0 mm 4 m/s 755 mmHg 59%
    12:00 +23°C° 0 mm 4 m/s 754 mmHg 56%
    13:00 +25°C° 0 mm 4 m/s 754 mmHg 53%
    14:00 +25°C° 0 mm 4 m/s 754 mmHg 49%
    15:00 +25°C° 0 mm 4 m/s 754 mmHg 50%
    16:00 +25°C° 0 mm 4 m/s 754 mmHg 51%
    17:00 +25°C° 0 mm 4 m/s 753 mmHg 52%
    18:00 +22°C° 0 mm 3 m/s 753 mmHg 58%
    19:00 +20°C° 0 mm 3 m/s 753 mmHg 64%
    20:00 +18°C° 0 mm 3 m/s 753 mmHg 70%
    21:00 +17°C° 0 mm 3 m/s 753 mmHg 72%
    22:00 +17°C° 0 mm 3 m/s 753 mmHg 73%
    23:00 +16°C° 0 mm 3 m/s 754 mmHg 74%

    24 August, Sâmbătă

    Timp Temperatura Precipitaţii Vânt Presiune Umiditate
    00:00 +14°C° 0 mm 3 m/s 753 mmHg 76%
    01:00 +14°C° 0 mm 3 m/s 753 mmHg 78%
    02:00 +13°C° 0 mm 3 m/s 753 mmHg 80%
    03:00 +13°C° 0 mm 3 m/s 753 mmHg 81%
    04:00 +13°C° 0 mm 3 m/s 753 mmHg 83%
    05:00 +12°C° 0 mm 3 m/s 753 mmHg 85%
    06:00 +14°C° 0 mm 3 m/s 753 mmHg 81%
    07:00 +15°C° 0 mm 4 m/s 753 mmHg 77%
    08:00 +17°C° 0 mm 4 m/s 753 mmHg 73%
    09:00 +19°C° 0 mm 4 m/s 753 mmHg 67%
    10:00 +21°C° 0 mm 5 m/s 753 mmHg 61%
    11:00 +23°C° 0 mm 5 m/s 753 mmHg 55%
    12:00 +23°C° 0 mm 5 m/s 752 mmHg 53%
    13:00 +25°C° 0 mm 5 m/s 752 mmHg 51%
    14:00 +26°C° 0 mm 5 m/s 752 mmHg 49%
    15:00 +26°C° 0 mm 4 m/s 751 mmHg 51%
    16:00 +25°C° 0 mm 4 m/s 751 mmHg 52%
    17:00 +25°C° 0 mm 4 m/s 751 mmHg 54%
    18:00 +23°C° 0 mm 4 m/s 751 mmHg 59%
    19:00 +21°C° 0 mm 3 m/s 751 mmHg 65%
    20:00 +19°C° 0 mm 3 m/s 750 mmHg 71%
    21:00 +18°C° 0 mm 3 m/s 751 mmHg 71%
    22:00 +18°C° 0 mm 3 m/s 751 mmHg 72%
    23:00 +17°C° 0 mm 3 m/s 751 mmHg 72%

    25 August, Duminică

    Timp Temperatura Precipitaţii Vânt Presiune Umiditate
    00:00 +17°C° 0 mm 3 m/s 751 mmHg 74%
    01:00 +16°C° 0 mm 3 m/s 750 mmHg 75%
    02:00 +16°C° 0 mm 3 m/s 750 mmHg 77%
    03:00 +16°C° 0 mm 3 m/s 750 mmHg 78%
    04:00 +14°C° 0 mm 3 m/s 750 mmHg 80%
    05:00 +14°C° 0 mm 3 m/s 750 mmHg 81%
    06:00 +16°C° 0 mm 3 m/s 750 mmHg 79%
    07:00 +17°C° 0 mm 4 m/s 750 mmHg 77%
    08:00 +19°C° 0 mm 4 m/s 750 mmHg 74%
    09:00 +20°C° 0 mm 4 m/s 750 mmHg 70%
    10:00 +22°C° 0 mm 4 m/s 751 mmHg 66%
    11:00 +25°C° 0 mm 4 m/s 751 mmHg 62%
    12:00 +26°C° 0 mm 4 m/s 751 mmHg 60%
    13:00 +27°C° 0 mm 5 m/s 750 mmHg 57%
    14:00 +28°C° 0 mm 5 m/s 750 mmHg 54%
    15:00 +27°C° 0 mm 5 m/s 750 mmHg 55%
    16:00 +27°C° 0 mm 4 m/s 750 mmHg 55%
    17:00 +27°C° 0 mm 4 m/s 750 mmHg 56%
    18:00 +25°C° 0 mm 4 m/s 750 mmHg 60%
    19:00 +22°C° 0 mm 4 m/s 750 mmHg 65%
    20:00 +21°C° 0 mm 4 m/s 750 mmHg 69%
    21:00 +20°C° 0 mm 4 m/s 750 mmHg 71%
    22:00 +19°C° 0 mm 4 m/s 750 mmHg 73%
    23:00 +19°C° 0 mm 4 m/s 750 mmHg 75%

    26 August, Luni

    Timp Temperatura Precipitaţii Vânt Presiune Umiditate
    00:00 +18°C° 0 mm 4 m/s 750 mmHg 77%
    01:00 +18°C° 0 mm 4 m/s 750 mmHg 78%
    02:00 +18°C° 0 mm 4 m/s 750 mmHg 80%
    03:00 +18°C° 0 mm 4 m/s 750 mmHg 82%
    04:00 +18°C° 0 mm 4 m/s 750 mmHg 83%
    05:00 +17°C° 0 mm 4 m/s 750 mmHg 84%
    06:00 +18°C° 0 mm 4 m/s 750 mmHg 80%
    07:00 +19°C° 0 mm 4 m/s 750 mmHg 76%
    08:00 +20°C° 0 mm 5 m/s 750 mmHg 71%
    09:00 +22°C° 0 mm 5 m/s 750 mmHg 67%
    10:00 +23°C° 0 mm 5 m/s 750 mmHg 62%
    11:00 +26°C° 0 mm 5 m/s 750 mmHg 58%
    12:00 +27°C° 0 mm 5 m/s 750 mmHg 56%
    13:00 +28°C° 0 mm 5 m/s 750 mmHg 54%
    14:00 +29°C° 0 mm 6 m/s 750 mmHg 52%
    15:00 +29°C° 0 mm 5 m/s 750 mmHg 54%
    16:00 +28°C° 0 mm 5 m/s 749 mmHg 56%
    17:00 +28°C° 0 mm 5 m/s 749 mmHg 58%
    18:00 +27°C° 0 mm 4 m/s 749 mmHg 65%
    19:00 +25°C° 0 mm 4 m/s 749 mmHg 71%
    20:00 +22°C° 0 mm 3 m/s 749 mmHg 78%
    21:00 +22°C° 0 mm 3 m/s 749 mmHg 80%
    22:00 +21°C° 0 mm 3 m/s 749 mmHg 81%
    23:00 +20°C° 0 mm 3 m/s 749 mmHg 83%
    Arată mai mult